Tracking 29892 objects as of 21-Nov-2024
HD Live streaming from Space Station
objects crossing your sky now

ONEWEB-0414

Track ONEWEB-0414 now!
10-day predictions
ONEWEB-0414 is classified as:


NORAD ID: 50491
Int'l Code: 2021-132Y
Perigee: 1,195.4 km
Apogee: 1,198.4 km
Inclination: 87.9 °
Period: 109.2 minutes
Semi major axis: 7567 km
RCS: Unknown
Launch date: December 27, 2021
Source: United Kingdom (UK)
Launch site: TYURATAM MISSILE AND SPACE COMPLEX (TTMTR)
Your satellite tracking list
Your tracking list is empty




NASA's NSSDC Master Catalog

Two Line Element Set (TLE):
1 50491U 21132Y   24325.77186449 -.00000222  00000-0 -59505-3 0  9995
2 50491  87.9091  89.5463 0001939 100.9951 259.1400 13.18685902146057
Source of the keplerian elements: AFSPC